Time,TemperatureF,DewpointF,PressureIn,WindDirection,WindDirectionDegrees,WindSpeedMPH,WindSpeedGustMPH,Humidity,HourlyPrecipIn,Conditions,Clouds,dailyrainin,SoftwareType,DateUTC
2013-03-15 00:00:00,57.5,20.0,29.89,ESE,112,0.0,0.0,23,0.00,,SKC,0.00,VWS V12.07,2013-03-15 06:00:00,
2013-03-15 01:00:00,54.4,19.3,29.89,ESE,112,0.0,0.0,25,0.00,,SKC,0.00,VWS V12.07,2013-03-15 07:00:00,
2013-03-15 02:00:00,54.1,20.0,29.86,ESE,112,0.0,0.0,26,0.00,,SKC,0.00,VWS V12.07,2013-03-15 08:00:00,
2013-03-15 03:00:00,54.4,20.2,29.83,ESE,112,0.0,0.0,26,0.00,,SKC,0.00,VWS V12.07,2013-03-15 09:00:00,
2013-03-15 04:00:00,53.9,19.8,29.83,ESE,112,0.0,0.0,26,0.00,,SKC,0.00,VWS V12.07,2013-03-15 10:00:00,
2013-03-15 06:00:00,51.0,21.5,29.89,South,180,0.0,1.0,31,0.00,,SKC,0.00,VWS V12.07,2013-03-15 12:00:00,
2013-03-15 07:00:00,50.1,22.1,29.92,South,180,0.0,0.0,33,0.00,,SKC,0.00,VWS V12.07,2013-03-15 13:00:00,
2013-03-15 08:00:00,49.9,22.0,29.93,South,180,0.0,0.0,33,0.00,,SKC,0.00,VWS V12.07,2013-03-15 14:00:00,
2013-03-15 09:00:00,57.5,22.9,29.88,South,180,0.0,1.0,26,0.00,,SKC,0.00,VWS V12.07,2013-03-15 15:00:00,
2013-03-15 10:00:00,59.2,22.5,29.88,SE,135,0.0,3.0,24,0.00,,SKC,0.00,VWS V12.07,2013-03-15 16:00:00,
2013-03-15 11:00:00,60.5,24.5,29.85,ESE,112,0.0,6.0,25,0.00,,SKC,0.00,VWS V12.07,2013-03-15 17:00:00,
2013-03-15 12:00:00,62.0,21.6,29.82,ESE,112,0.0,7.0,21,0.00,,SKC,0.00,VWS V12.07,2013-03-15 18:00:00,
2013-03-15 13:00:00,62.9,22.4,29.81,ESE,112,0.0,4.0,21,0.00,,SKC,0.00,VWS V12.07,2013-03-15 19:00:00,
2013-03-15 14:00:00,63.1,22.6,29.79,ENE,68,0.0,7.0,21,0.00,,SKC,0.00,VWS V12.07,2013-03-15 20:00:00,
2013-03-15 15:00:00,63.1,22.6,29.78,East,90,1.0,9.0,21,0.00,,SKC,0.00,VWS V12.07,2013-03-15 21:00:00,
2013-03-15 16:00:00,64.7,22.7,29.76,East,90,0.0,5.0,20,0.00,,SKC,0.00,VWS V12.07,2013-03-15 22:00:00,
2013-03-15 17:00:00,59.9,23.0,29.79,ENE,68,0.0,5.0,24,0.00,,SKC,0.00,VWS V12.07,2013-03-15 23:00:00,
2013-03-15 18:00:00,55.4,23.7,29.82,ENE,68,0.0,1.0,29,0.00,,SKC,0.00,VWS V12.07,2013-03-16 00:00:00,
2013-03-15 19:00:00,52.8,23.0,29.85,ENE,68,0.0,0.0,31,0.00,,SKC,0.00,VWS V12.07,2013-03-16 01:00:00,
2013-03-15 20:00:00,52.6,19.6,29.82,ENE,68,0.0,0.0,27,0.00,,SKC,0.00,VWS V12.07,2013-03-16 02:00:00,
2013-03-15 21:00:00,51.9,19.8,29.79,ENE,68,0.0,0.0,28,0.00,,SKC,0.00,VWS V12.07,2013-03-16 03:00:00,
2013-03-15 22:00:00,50.2,20.0,29.81,ENE,68,0.0,0.0,30,0.00,,SKC,0.00,VWS V12.07,2013-03-16 04:00:00,
2013-03-15 23:00:00,47.7,21.4,29.79,ENE,68,0.0,0.0,35,0.00,,SKC,0.00,VWS V12.07,2013-03-16 05:00:00,